User: anonymous   Login
Location: Bazinghen
(50.8246°N, 1.6616°E)
Time: 21:11:50
(UTC+00:00)
Language:

STARLINK-1254 - Orbit

View from above orbital plane
View from above orbital plane
View from above satellite
View from above satellite

Ground track
Ground track

The orbit data is extracted from the following two-line orbital elements,

1 45216U 20012AQ  20185.66668981 -.00024213  00000-0 -16469-2 0  9991
2 45216  52.9992 341.7521 0001397  94.4661 213.8101 15.05611062 21443
Epoch (UTC): 03 July 2020 16:00:02
Eccentricity: 0.0001397
inclination: 52.9992°
perigee height: 548 km
apogee height: 550 km
right ascension of ascending node: 341.7521°
argument of perigee: 94.4661°
revolutions per day: 15.05611062
mean anomaly at epoch: 213.8101°
orbit number at epoch: 2144

The dashed part of the orbit path shows where the satellite is in the earth's shadow,  

DLR